Location: Zagreb
(45.8000°N, 16.0000°E)
Time: 02:45:27
(UTC+02:00)

Transit 2A Rocket - Pass Details

Date: 24 January 2022
Orbit: 592 x 909 km, 66.7° (Epoch: 26 May)

Event Time Altitude Azimuth Distance (km) Brightness Sun altitude
Rises 18:17:25 0° 189° (S) 3,456 8.7 -15.1°
Reaches altitude 10° 18:19:59 10° 183° (S) 2,549 7.9 -15.6°
Maximum altitude 18:25:35 43° 113° (ESE) 1,247 5.7 -16.5°
Enters shadow 18:28:45 24° 57° (ENE) 1,782 6.3 -17.1°
Drops below altitude 10° 18:31:18 10° 44° (NE) 2,597 - -17.5°
Sets 18:33:55 0° 38° (NE) 3,528 - -18.0°
